Theta_e
306 306 306 306 306 306 306 307 307 307 307 307 308 308 308 315 319 322 322 323 322 323 322 320 318 315 309 308 308 308 308 308 308
307 307 307 307 307 307 307 307 307 307 307 308 308 308 309 318 319 323 327 328 330 328 326 326 325 322 323 324 321 319 319 316 311
306 306 306 307 307 307 307 307 307 308 308 308 308 309 309 319 325 328 329 328 326 324 324 326 326 325 325 325 326 326 325 323 323
306 307 307 307 307 307 307 307 307 308 308 309 309 309 311 325 327 329 326 326 324 320 322 325 326 325 326 327 326 326 325 324 324
306 306 307 307 307 307 307 307 308 308 308 308 309 309 316 323 324 326 323 322 321 319 318 323 323 324 323 323 324 324 323 322 321
307 307 307 307 307 307 307 307 307 307 307 308 309 311 319 321 322 322 320 320 320 316 318 319 323 323 322 321 320 321 321 320 318
307 307 307 307 307 306 306 306 306 306 307 307 310 316 316 317 319 318 315 318 319 318 315 315 318 321 320 318 317 312 313 312 311
307 307 307 306 306 306 306 306 306 306 306 309 312 311 313 315 316 311 312 312 313 315 318 316 318 319 317 315 310 310 310 308 308
307 307 307 306 306 306 306 306 306 306 307 309 310 311 313 314 314 309 309 308 306 305 310 310 313 315 315 313 310 306 304 304 305
307 307 307 306 306 306 306 306 306 307 307 307 308 311 312 310 310 307 306 304 302 302 303 304 308 313 314 313 308 303 303 303 303
307 306 306 306 306 306 306 306 306 307 307 307 308 309 309 307 307 307 304 302 302 302 302 302 302 304 307 309 303 301 301 301 301
306 306 306 306 306 306 306 306 307 307 307 307 308 308 308 307 306 305 304 303 303 303 304 304 303 303 303 304 303 302 302 301 301
306 306 306 306 306 306 306 306 306 306 307 308 307 308 308 306 306 305 305 304 304 304 304 304 304 304 304 304 304 304 304 303 302
306 306 305 305 305 306 306 306 306 306 306 307 307 308 308 307 306 306 305 305 304 304 304 304 304 304 304 304 304 304 304 304 304
305 305 305 305 305 305 305 305 306 306 306 306 306 307 308 308 309 306 306 305 305 304 304 303 303 304 304 304 304 304 304 304 304
305 305 305 305 305 305 305 305 305 305 305 305 305 306 307 308 309 304 306 306 305 304 304 303 303 303 303 303 303 303 303 303 303
305 305 304 304 304 304 304 304 304 305 305 305 306 308 309 308 305 304 306 306 305 304 304 302 302 302 302 302 302 302 302 302 301
304 304 304 304 304 304 304 304 304 304 304 304 306 306 308 306 304 305 304 305 305 304 302 301 301 302 301 300 297 295 294 294 296
304 304 304 304 304 303 303 303 303 303 304 304 304 304 304 306 305 303 302 303 303 301 301 302 299 296 293 292 292 292 292 292 292
304 303 303 303 303 303 303 303 303 303 303 303 303 303 303 302 303 304 304 302 302 301 299 294 294 292 291 291 291 291 290 290 290
Wind_Speed
13 13 13 13 12 12 13 13 13 12 11 10 10 11 11 13 13 13 14 15 18 17 16 16 16 14 12 11 9 8 7 6 5
13 13 13 12 12 12 12 12 12 12 11 11 11 12 11 12 13 15 14 16 16 16 15 15 16 17 16 16 16 16 15 13 11
12 12 11 11 11 11 12 11 11 11 11 11 11 12 13 13 15 14 15 10 6 9 12 15 14 14 14 13 14 13 12 12 12
12 11 11 10 10 10 10 10 10 10 10 11 11 12 14 12 15 13 10 5 5 3 7 12 13 12 12 12 12 11 10 9 11
10 10 10 9 9 10 10 9 9 8 9 9 11 11 13 12 12 11 9 5 9 6 4 9 8 7 2 3 3 6 6 6 7
10 10 9 9 9 9 9 9 8 8 8 8 9 10 9 9 9 7 5 4 9 10 10 8 8 5 5 5 7 6 8 10 10
9 9 9 8 8 9 8 8 8 8 7 8 8 9 9 9 8 6 2 7 11 11 9 9 6 5 6 8 10 8 8 10 10
9 9 9 8 8 8 8 8 8 8 8 8 8 8 8 9 8 6 3 3 7 9 11 10 11 9 6 8 9 10 9 9 9
9 9 8 8 8 8 8 8 8 8 8 8 8 8 9 8 8 7 6 6 8 9 9 9 9 9 9 10 12 12 12 12 12
8 8 8 8 8 8 8 8 8 8 8 8 8 9 8 8 8 7 7 8 8 9 9 9 9 9 8 9 11 12 12 12 12
8 8 7 8 8 8 8 8 8 8 8 8 8 7 7 7 7 7 7 8 8 8 8 9 8 8 9 9 12 13 13 13 13
8 7 7 7 8 8 8 7 7 8 8 7 7 6 6 6 6 6 6 7 7 8 8 8 8 9 9 10 11 11 12 12 12
8 7 7 7 7 7 7 6 6 6 7 6 5 5 4 5 5 5 5 4 5 6 6 6 7 8 9 10 10 12 13 14 14
9 8 8 7 7 6 6 5 6 5 5 5 4 4 4 3 3 2 2 1 2 4 6 7 8 9 10 10 10 11 13 14 15
9 8 7 7 6 6 5 4 4 4 4 4 3 2 2 2 1 1 3 3 3 4 6 8 10 12 12 13 13 14 15 16 16
10 9 8 8 7 6 5 5 4 4 4 3 2 3 4 5 5 5 6 6 6 7 9 12 14 15 15 15 16 16 17 17 17
10 10 9 8 7 6 5 5 4 4 4 4 5 4 3 7 6 6 7 8 9 9 12 16 17 18 18 19 19 19 20 20 19
10 10 10 9 8 7 6 5 5 5 4 4 4 2 3 4 8 7 8 10 10 13 18 19 20 20 21 22 22 22 21 19 17
12 12 10 10 9 7 6 5 5 5 5 4 4 5 6 2 3 6 8 10 14 16 19 19 21 20 21 22 23 23 23 22 22
13 13 11 10 9 7 6 5 5 6 5 5 5 5 6 6 4 8 7 9 10 15 19 20 16 20 23 25 26 24 24 26 28
Wind_Direction
104 103 102 101 99 97 96 97 99 100 98 95 91 86 82 77 72 68 59 58 50 47 44 41 40 36 35 35 33 27 17 359 332
106 106 104 101 98 97 97 99 101 98 92 86 79 78 77 80 75 70 65 65 69 60 52 42 40 44 48 45 45 45 40 32 26
109 106 103 101 98 96 96 97 95 92 91 91 87 83 85 81 78 78 88 83 70 71 64 57 49 51 54 53 56 57 48 42 40
112 109 105 101 99 97 95 94 93 93 95 92 89 89 95 86 91 86 74 58 23 35 80 67 64 62 68 75 72 63 58 55 50
115 113 111 108 104 103 101 95 94 93 95 95 96 97 94 88 83 72 68 31 47 62 138 83 66 55 32 12 47 40 11 1 11
118 114 110 111 105 102 100 96 94 92 93 99 98 93 90 89 84 76 97 63 50 51 69 84 87 59 15 324 314 315 335 332 323
117 112 110 105 102 97 93 92 95 96 101 99 91 89 90 88 82 79 186 56 54 52 55 60 73 47 0 338 325 325 334 333 326
121 118 113 106 100 98 95 94 98 102 108 105 102 99 93 89 78 82 88 63 52 52 52 54 54 49 7 351 356 18 14 3 357
127 121 116 111 109 104 102 104 102 100 103 105 102 95 90 90 83 75 64 50 38 39 45 47 54 54 33 19 17 18 18 13 9
133 127 123 116 110 107 106 105 101 98 101 104 102 99 91 87 84 71 60 55 52 51 46 45 51 49 41 28 15 18 17 13 9
142 134 129 122 117 111 109 107 105 105 105 108 109 104 93 81 80 75 64 60 59 58 52 46 44 39 34 20 10 11 10 7 6
151 144 136 131 127 118 112 112 112 108 108 110 109 104 94 83 81 75 70 64 59 52 48 42 37 29 19 11 6 4 3 1 357
160 153 147 143 137 129 120 119 118 116 116 115 113 110 103 100 86 70 68 67 51 32 29 28 20 11 5 1 357 354 353 353 350
169 165 158 154 147 139 131 124 124 126 128 128 125 125 129 119 89 56 51 41 18 10 8 3 358 355 354 350 344 341 341 340 339
178 175 172 169 162 159 156 147 139 140 143 144 153 165 173 180 197 291 279 279 303 322 336 339 338 337 336 334 332 331 329 328 327
187 184 184 182 178 178 181 177 167 161 163 164 203 218 221 230 240 265 260 260 280 299 318 326 327 326 324 322 321 319 318 318 318
194 193 192 191 190 194 200 201 200 196 185 189 191 194 242 237 249 259 245 259 278 292 311 318 319 318 317 317 315 313 311 309 307
201 202 198 199 203 204 208 219 224 227 219 210 197 233 233 207 270 246 252 266 270 291 306 312 312 312 312 312 312 312 310 308 308
208 207 205 209 212 213 217 226 237 243 248 250 250 243 244 255 258 273 264 265 278 291 301 307 310 309 311 312 310 310 307 304 301
207 207 208 214 218 219 223 229 237 252 260 268 277 277 278 275 261 274 271 289 292 299 304 309 308 306 310 311 307 307 305 303 298